NJE311N LMML-LFMD

Flight info

Callsign NJE311N
Flight time N/A
Altitude 30000
Route GZO M622 SOPIR/N0470F430 DCT ADEXI DCT GITRI DCT ROMPO DCT RUGOX DCT MADKA DCT AJO DCT BEBEV DCT OMEDA M622 LONSU
Aircraft C700/M-SBDE1E2E3FGHIJ1J3J4J7P2RWXY/LB2D1

Departure

Time 2026-05-01 14:45
Airport Malta International Airport (LMML)

Arrival

Time N/A
Airport Cannes Mandelieu Airport (LFMD)
Time Latitude Longitude Altitude Speed Heading
2026-05-01 14:18 35.85996 14.47602 0 ft 0 kts 88°
2026-05-01 14:36 35.85996 14.47610 266 ft 5 kts 88°
2026-05-01 14:36 35.85987 14.47666 266 ft 7 kts 120°
2026-05-01 14:37 35.85945 14.47724 266 ft 11 kts 135°
2026-05-01 14:37 35.85912 14.47802 266 ft 11 kts 71°
2026-05-01 14:37 35.85943 14.47900 266 ft 13 kts 68°
2026-05-01 14:37 35.85970 14.47976 266 ft 7 kts 64°
2026-05-01 14:38 35.85983 14.48007 266 ft 0 kts 64°
2026-05-01 14:39 35.85994 14.48035 266 ft 7 kts 64°
2026-05-01 14:39 35.86010 14.48079 266 ft 3 kts 78°
2026-05-01 14:39 35.86006 14.48096 266 ft 0 kts 118°
2026-05-01 14:40 35.85991 14.48113 266 ft 8 kts 140°
2026-05-01 14:40 35.85919 14.48152 266 ft 13 kts 171°
2026-05-01 14:40 35.85817 14.48169 266 ft 16 kts 173°
2026-05-01 14:41 35.85714 14.48192 266 ft 15 kts 168°
2026-05-01 14:41 35.85658 14.48174 266 ft 8 kts 270°
2026-05-01 14:41 35.85658 14.48101 266 ft 6 kts 271°
2026-05-01 14:41 35.85658 14.48084 266 ft 0 kts 270°
2026-05-01 14:43 35.85658 14.48080 266 ft 3 kts 270°
2026-05-01 14:44 35.85660 14.48009 266 ft 11 kts 285°
2026-05-01 14:44 35.85599 14.47932 266 ft 13 kts 141°
2026-05-01 14:44 35.85435 14.48136 266 ft 73 kts 134°
2026-05-01 14:45 35.84859 14.48853 352 ft 153 kts 134°
2026-05-01 14:45 35.83013 14.51099 1453 ft 210 kts 140°
2026-05-01 14:45 35.81579 14.51543 2784 ft 227 kts 183°
2026-05-01 14:46 35.80131 14.50718 4172 ft 239 kts 226°
2026-05-01 14:46 35.78302 14.47134 6926 ft 269 kts 244°
2026-05-01 14:46 35.77313 14.45137 8495 ft 273 kts 242°
2026-05-01 14:47 35.76293 14.43171 10303 ft 274 kts 243°
2026-05-01 14:47 35.75300 14.41054 11462 ft 296 kts 252°
2026-05-01 14:47 35.75014 14.38585 13086 ft 292 kts 274°
2026-05-01 14:48 35.76836 14.34178 16085 ft 307 kts 318°
2026-05-01 14:48 35.78755 14.32916 17515 ft 319 kts 332°
2026-05-01 14:48 35.82973 14.30883 19993 ft 332 kts 333°
2026-05-01 14:49 35.87328 14.28705 22145 ft 344 kts 332°
2026-05-01 14:49 35.91812 14.26474 24164 ft 356 kts 331°
2026-05-01 14:50 35.94906 14.24934 25420 ft 361 kts 331°
2026-05-01 14:50 36.01220 14.21781 27730 ft 374 kts 332°
2026-05-01 14:51 36.03503 14.20506 28537 ft 374 kts 326°
2026-05-01 14:51 36.07831 14.16889 30102 ft 384 kts 319°
2026-05-01 14:52 36.12326 14.12924 30132 ft 428 kts 320°
2026-05-01 14:52 36.14878 14.10666 30135 ft 448 kts 320°
2026-05-01 14:53 36.22556 14.03858 30128 ft 451 kts 320°
2026-05-01 14:53 36.27639 13.99335 30124 ft 450 kts 320°
2026-05-01 14:54 36.32740 13.94793 30126 ft 453 kts 320°
2026-05-01 14:54 36.37840 13.90244 30123 ft 450 kts 320°
2026-05-01 14:55 36.42902 13.85718 30122 ft 448 kts 319°
2026-05-01 14:55 36.47975 13.81176 30123 ft 451 kts 319°
2026-05-01 14:56 36.53061 13.76620 30125 ft 449 kts 319°
2026-05-01 14:56 36.58106 13.72091 30119 ft 446 kts 319°
2026-05-01 14:57 36.63156 13.67549 30125 ft 450 kts 319°
2026-05-01 14:57 36.70727 13.60729 30124 ft 447 kts 319°
2026-05-01 14:58 36.75752 13.56190 30123 ft 447 kts 319°
2026-05-01 14:58 36.80804 13.51622 30126 ft 450 kts 319°
2026-05-01 14:59 36.85849 13.47052 30124 ft 446 kts 319°
2026-05-01 14:59 36.90855 13.42507 30122 ft 444 kts 319°
2026-05-01 15:00 36.98375 13.35672 30118 ft 446 kts 319°
2026-05-01 15:01 37.03370 13.31120 30123 ft 443 kts 319°
2026-05-01 15:01 37.08334 13.26588 30110 ft 440 kts 319°
2026-05-01 15:02 37.13290 13.22055 30110 ft 443 kts 319°
2026-05-01 15:02 37.18255 13.17511 30103 ft 440 kts 319°
2026-05-01 15:03 37.23180 13.12994 30107 ft 437 kts 319°
2026-05-01 15:03 37.28096 13.08476 30102 ft 439 kts 319°
2026-05-01 15:04 37.33035 13.03932 30113 ft 440 kts 319°
2026-05-01 15:04 37.38202 12.99811 30098 ft 440 kts 324°
2026-05-01 15:05 37.43339 12.95880 30106 ft 442 kts 324°
2026-05-01 15:05 37.48629 12.91905 30104 ft 442 kts 324°
2026-05-01 15:06 37.53868 12.87921 30110 ft 439 kts 324°
2026-05-01 15:06 37.59128 12.83929 30114 ft 443 kts 324°
2026-05-01 15:07 37.64401 12.79922 30116 ft 441 kts 324°
2026-05-01 15:07 37.69632 12.75936 30124 ft 440 kts 324°
2026-05-01 15:08 37.74783 12.72005 30134 ft 443 kts 324°
2026-05-01 15:08 37.80040 12.67989 30134 ft 439 kts 324°
2026-05-01 15:09 37.85259 12.63989 30134 ft 439 kts 324°
2026-05-01 15:09 37.90499 12.59972 30140 ft 441 kts 324°
2026-05-01 15:10 37.95545 12.56097 30142 ft 439 kts 324°
2026-05-01 15:10 38.03454 12.50006 30139 ft 438 kts 324°
2026-05-01 15:11 38.11256 12.43990 30147 ft 437 kts 324°
2026-05-01 15:12 38.16445 12.39973 30150 ft 438 kts 324°
2026-05-01 15:12 38.24285 12.33902 30165 ft 438 kts 324°
2026-05-01 15:14 38.37181 12.23874 30172 ft 439 kts 324°
2026-05-01 15:14 38.44949 12.17810 30178 ft 436 kts 324°
2026-05-01 15:15 38.55335 12.09685 30182 ft 435 kts 324°
2026-05-01 15:16 38.65650 12.01582 30189 ft 438 kts 324°
2026-05-01 15:18 38.77646 11.92126 30193 ft 435 kts 324°
2026-05-01 15:19 38.87950 11.83978 30196 ft 432 kts 324°
2026-05-01 15:19 38.95653 11.77862 30201 ft 436 kts 324°
2026-05-01 15:20 39.03352 11.71739 30198 ft 433 kts 324°
2026-05-01 15:21 39.08465 11.67660 30205 ft 434 kts 324°
2026-05-01 15:21 39.13619 11.63545 30211 ft 437 kts 324°
2026-05-01 15:22 39.21329 11.57374 30209 ft 434 kts 324°
2026-05-01 15:22 39.26476 11.53244 30207 ft 437 kts 324°
2026-05-01 15:23 39.31649 11.49089 30214 ft 438 kts 324°
2026-05-01 15:23 39.36806 11.44939 30215 ft 436 kts 324°
2026-05-01 15:24 39.41959 11.40783 30213 ft 438 kts 324°
2026-05-01 15:24 39.47125 11.36612 30864 ft 427 kts 324°
2026-05-01 15:25 39.49565 11.34649 32747 ft 399 kts 324°
2026-05-01 15:25 39.51858 11.32792 34309 ft 384 kts 323°
2026-05-01 15:25 39.54079 11.30979 35089 ft 382 kts 324°
2026-05-01 15:25 39.56368 11.29115 35201 ft 396 kts 324°
2026-05-01 15:26 39.58749 11.27183 35206 ft 412 kts 324°
2026-05-01 15:26 39.61222 11.25181 35208 ft 426 kts 324°
2026-05-01 15:26 39.66292 11.21062 35212 ft 429 kts 324°
2026-05-01 15:27 39.71310 11.16974 35208 ft 426 kts 325°
2026-05-01 15:28 39.78862 11.10808 35210 ft 429 kts 325°
2026-05-01 15:28 39.83921 11.06670 35214 ft 428 kts 325°
2026-05-01 15:29 39.91251 11.00658 35210 ft 425 kts 325°
2026-05-01 15:30 40.01313 10.92383 35217 ft 430 kts 325°
2026-05-01 15:31 40.16374 10.79942 35221 ft 428 kts 326°
2026-05-01 15:32 40.26430 10.71597 35225 ft 429 kts 326°
2026-05-01 15:34 40.41542 10.59001 35225 ft 432 kts 326°